Powrót do katalogu

STARLINK-30385

AktywnyŁącznośćVLEO
NORAD 57778·PAYLOAD·🇺🇸 United States

Wystrzelony Sep 4, 2023 z Cape Canaveral Space Force Station

Loading…

Następne Przeloty (najbliższe 24 godziny)

TLE

ŚwieżeSource: CelesTrak SupGP

Epoka: Sep 14, 2026, 21:28 UTC

1 57778C 23134H   26257.89493056  .00001341  00000+0  48561-4 0  2576
2 57778  43.0027 194.4762 0001260 261.1901 228.3008 15.27573842    12

Śledź STARLINK-30385 w czasie rzeczywistym z AllMySat

Download on the App Store